Temperature
20 19 19 19 18 18 20 21 23 24 25 25 25 24 23 22 22 21 21 21 21 21 20 20 20 20 20 20 20 20 20 20 20 20 20 20 20 19 19 19 19 19 19 19 19 19 19 19 19
20 19 19 19 18 20 22 23 24 25 26 26 26 24 22 21 21 21 22 21 21 21 20 20 20 20 20 20 20 20 20 20 20 20 20 20 19 19 19 19 19 19 19 19 19 19 19 19 19
19 19 19 17 19 20 23 25 25 26 26 26 25 24 23 22 22 22 22 21 21 21 20 20 20 20 20 20 20 20 20 20 20 20 19 19 19 19 19 19 19 19 19 19 19 19 19 19 19
19 19 19 18 19 21 23 24 25 25 26 25 24 23 22 21 22 23 22 22 21 21 20 20 20 20 20 20 20 20 20 20 19 19 19 19 19 19 19 19 19 19 18 18 18 18 19 19 19
19 19 18 18 19 22 23 25 25 24 24 24 24 22 20 21 22 22 22 22 21 21 20 20 20 20 20 20 20 20 20 19 19 19 19 19 19 19 19 19 19 18 18 18 18 18 18 18 18
19 18 18 19 21 23 24 24 24 24 24 24 23 21 20 20 22 22 22 22 21 21 20 20 20 20 20 20 20 20 20 19 19 19 19 19 19 19 19 18 18 18 18 18 18 18 18 18 18
20 17 19 21 22 23 24 24 23 23 23 22 22 20 19 20 21 22 22 21 21 20 20 20 20 20 20 20 20 20 20 19 19 19 19 19 19 18 18 18 18 18 18 18 18 18 18 18 18
21 17 20 20 23 24 23 23 23 22 22 21 22 20 19 19 21 21 21 21 20 20 20 20 20 20 20 19 19 19 19 19 19 19 19 18 18 18 18 18 18 18 18 18 18 18 18 18 18
21 18 19 21 23 24 23 23 22 21 21 20 20 20 20 20 21 21 21 20 20 20 20 20 20 20 20 19 19 19 19 19 19 19 18 18 18 18 18 18 18 18 18 18 18 18 18 18 18
21 18 20 22 24 23 23 22 22 21 20 19 19 20 20 20 20 21 21 20 20 20 20 19 20 20 19 19 19 19 19 19 19 19 19 18 18 18 18 18 18 18 18 18 18 18 18 18 18
20 19 21 22 24 24 22 21 20 20 19 18 18 18 19 19 19 20 20 20 20 20 20 20 19 19 19 19 19 19 18 18 18 18 18 18 18 18 18 18 18 18 18 17 17 17 17 17 17
20 20 22 23 24 23 21 20 18 18 18 18 18 18 19 19 18 19 19 19 19 19 19 19 19 19 19 18 18 18 18 18 18 18 18 17 17 17 17 17 17 17 17 17 17 17 17 17 17
22 22 22 22 22 21 20 19 18 17 17 18 18 18 18 18 18 18 18 18 18 18 18 18 19 19 18 18 18 18 17 17 17 17 17 17 17 17 17 17 17 17 17 17 17 17 17 17 17
22 22 21 21 20 20 19 18 18 17 17 18 18 18 18 18 18 18 18 18 18 18 18 18 18 18 18 18 17 17 17 17 17 17 17 17 17 16 16 16 16 16 17 17 17 17 16 16 16
23 22 21 20 20 19 19 18 17 17 17 17 17 17 17 17 18 18 18 18 18 18 18 18 18 18 18 17 17 17 17 17 17 17 17 16 16 16 16 16 16 16 16 16 16 16 16 16 16
22 21 20 21 20 20 19 18 17 17 17 17 17 17 17 17 17 17 17 17 17 18 18 18 18 18 17 17 17 17 17 17 17 16 16 16 15 15 15 15 15 15 15 15 15 15 15 15 15
21 21 21 21 20 20 18 17 17 17 17 17 17 17 17 17 17 17 18 18 18 18 18 18 18 18 17 17 17 17 16 16 16 16 15 15 15 14 14 14 14 14 14 14 14 15 15 15 15
21 21 21 20 20 19 17 17 17 17 17 16 17 17 17 17 17 18 18 18 18 18 18 18 18 17 17 17 17 16 16 16 15 15 15 14 14 14 14 13 13 13 14 14 14 14 14 14 14
22 21 20 20 20 18 17 17 17 17 16 16 16 17 17 17 18 18 18 18 18 18 18 18 17 17 17 16 16 16 15 15 14 14 14 13 13 13 13 13 13 13 13 13 13 13 13 13 13
22 21 20 19 19 18 17 17 17 17 16 16 16 17 17 18 18 18 18 18 18 18 18 17 17 17 16 16 15 15 14 14 13 13 13 13 12 12 12 12 12 13 13 13 13 13 13 13 13
22 21 20 19 19 18 18 18 17 17 17 17 17 17 18 18 19 18 18 18 18 18 18 17 17 16 16 15 15 14 14 13 13 13 12 12 12 12 12 12 12 12 12 12 12 12 12 12 12
21 21 21 19 18 16 17 17 17 16 16 17 17 18 18 19 19 19 19 18 18 18 17 17 16 16 16 15 14 14 13 13 12 12 12 11 11 11 11 11 11 12 12 12 12 12 12 12 12
21 20 19 18 17 17 16 16 16 16 17 17 17 18 19 19 19 19 19 19 18 18 17 17 16 16 15 15 14 13 13 12 12 12 11 11 11 11 11 11 11 11 11 11 11 12 11 11 11
20 19 17 16 16 17 16 16 16 16 17 17 17 19 19 19 19 19 19 19 18 18 17 17 16 16 15 14 14 13 12 12 12 11 11 11 11 11 11 10 10 10 11 11 11 11 11 11 11
20 18 17 18 16 16 16 16 16 17 17 17 18 19 19 19 19 19 19 19 18 18 17 17 16 15 15 14 13 12 12 11 11 11 11 10 10 10 10 10 10 10 10 10 10 10 11 11 11
20 19 18 19 18 17 16 16 16 17 18 18 18 19 19 19 19 19 19 19 18 18 17 16 15 15 14 13 12 12 11 11 11 11 10 10 10 10 10 10 10 9 9 9 10 10 10 10 10
20 18 17 16 16 17 17 16 17 18 18 18 18 19 19 20 19 19 19 19 18 17 17 16 15 14 13 12 12 12 11 11 11 11 10 10 10 10 9 9 9 9 9 9 9 9 9 9 9
20 17 15 16 17 18 18 17 17 19 19 18 18 18 19 19 19 19 19 18 17 17 16 15 14 13 13 12 12 11 11 11 10 10 10 10 10 9 9 9 9 9 9 9 9 9 9 9 9
21 19 15 14 16 16 17 17 17 17 18 18 18 19 20 20 20 19 19 18 17 16 15 15 14 13 12 12 11 11 11 10 10 10 10 10 9 9 9 9 9 9 9 8 8 8 8 8 8
22 21 17 18 17 15 16 17 18 17 17 18 19 20 20 20 20 19 18 17 17 16 15 14 13 13 12 12 11 11 11 10 10 10 10 9 9 9 9 8 8 8 8 8 8 8 8 8 8
Wind_Speed
15 10 3 2 2 1 5 5 4 4 3 3 6 8 8 5 3 4 3 9 13 12 13 15 16 16 16 17 18 17 17 17 16 16 15 15 15 14 14 13 13 12 11 10 10 9 9 9 9
10 5 2 3 2 3 5 4 3 2 1 2 5 6 7 6 4 7 6 9 14 12 12 14 16 15 16 16 17 16 16 15 15 15 14 14 13 13 13 12 12 11 11 10 9 9 9 9 9
7 2 3 3 0 3 6 4 2 2 3 3 4 6 5 4 5 5 7 14 13 10 11 14 16 15 15 15 15 15 14 14 13 13 13 12 12 12 11 11 10 10 10 10 9 9 9 9 9
4 3 4 3 4 6 6 7 3 1 5 7 5 6 5 5 2 7 14 16 14 9 11 14 15 15 14 14 14 14 13 13 12 12 11 11 11 10 10 10 10 9 9 9 9 9 9 9 9
3 4 3 2 6 6 5 5 0 2 3 6 5 5 4 6 9 14 15 16 14 10 9 12 14 14 13 13 13 13 12 12 11 11 10 10 10 10 10 10 9 9 9 9 9 9 9 9 9
4 4 3 3 6 5 5 6 5 6 4 4 5 4 3 4 9 11 13 13 12 10 8 10 13 12 12 12 12 11 11 11 10 10 10 10 10 10 10 10 10 10 10 9 9 9 10 9 9
4 4 2 3 5 5 5 5 6 5 5 5 3 4 3 4 6 9 11 11 10 8 7 6 8 9 10 10 10 10 10 10 10 10 10 9 9 9 9 9 10 10 11 11 10 10 11 11 11
4 4 1 3 2 4 5 4 4 6 3 4 4 4 3 5 9 11 11 10 9 7 5 5 6 5 5 5 8 8 9 9 9 9 9 10 10 10 10 10 10 11 11 12 12 12 12 13 13
4 3 2 4 3 2 2 3 4 5 5 5 6 3 4 12 13 12 10 8 7 6 4 4 4 3 3 2 5 6 7 8 8 8 9 10 8 8 8 10 11 12 13 13 14 14 15 14 14
5 3 7 6 4 3 1 3 3 5 7 6 6 9 11 12 11 10 9 8 6 5 4 2 2 2 2 2 2 2 3 4 6 6 7 7 6 6 8 8 11 12 12 13 14 15 16 15 13
7 7 6 6 5 3 3 3 4 6 6 4 5 7 9 10 8 8 7 7 5 4 4 2 2 1 1 0 1 1 2 2 2 4 5 5 3 3 4 4 6 7 8 8 9 10 10 11 11
5 6 5 4 1 3 4 5 6 8 6 7 8 8 10 10 8 8 8 7 7 6 5 4 3 3 2 2 2 1 1 1 1 2 3 2 1 1 2 2 3 4 4 5 6 6 8 10 11
5 4 3 2 6 8 11 9 8 7 8 10 11 11 10 11 9 9 8 7 8 7 6 5 5 5 4 3 2 3 3 2 2 3 3 1 1 1 1 1 2 3 3 4 4 5 6 6 8
3 2 4 6 8 6 11 7 6 5 7 10 10 9 8 9 8 8 8 8 7 7 5 5 5 5 5 4 2 2 2 3 3 3 4 2 1 0 1 1 1 2 3 3 4 4 5 5 5
1 4 6 5 5 4 8 7 3 4 7 8 8 8 8 6 6 7 6 6 6 5 4 4 5 4 5 4 2 3 2 3 2 3 3 3 2 1 1 1 1 2 3 4 4 4 4 4 5
3 4 3 2 3 2 6 3 2 3 6 7 7 7 7 5 5 5 6 6 5 5 4 3 4 4 4 3 3 3 3 3 3 3 4 4 2 1 1 1 1 2 3 2 3 3 3 4 4
4 2 1 0 2 3 4 4 5 3 6 7 6 6 6 6 5 5 5 6 6 5 5 4 4 4 3 3 3 3 3 3 4 4 4 4 4 3 1 1 2 3 2 2 3 2 2 4 5
3 2 2 2 1 4 4 4 4 3 4 5 5 5 6 7 7 7 7 6 6 5 4 4 3 2 2 2 2 2 3 3 4 4 4 5 5 5 3 2 3 3 2 2 2 3 2 3 4
4 4 3 1 1 4 4 4 4 3 3 4 4 5 6 7 6 6 6 6 5 5 4 4 3 2 2 1 1 1 2 2 3 3 5 6 6 6 4 3 3 2 2 3 3 2 3 2 2
3 4 3 2 2 3 3 2 2 3 3 4 5 6 7 6 5 6 7 7 7 6 6 5 4 3 2 1 1 1 0 2 2 3 5 6 6 7 5 3 4 3 3 4 3 1 2 2 1
2 4 5 5 3 4 2 1 2 2 3 4 5 6 7 8 9 8 8 8 7 8 8 6 5 4 3 2 1 2 2 3 3 3 3 5 7 7 6 5 4 4 3 3 4 2 2 2 2
1 1 6 6 5 4 4 3 3 1 2 4 5 6 8 8 8 8 8 8 9 9 6 6 5 5 4 3 2 1 1 3 4 3 4 6 6 6 6 5 4 3 2 3 4 3 2 2 2
3 6 8 6 6 4 5 2 6 2 3 5 6 6 8 8 8 8 9 9 7 6 5 5 5 4 3 3 3 3 3 4 3 4 6 6 5 5 5 5 3 3 2 3 4 3 3 2 3
7 8 8 7 5 3 2 1 6 4 5 5 5 6 7 6 6 6 5 5 4 4 4 4 4 3 3 3 3 4 5 5 5 6 5 5 4 5 5 5 3 3 3 3 3 3 4 4 4
6 6 5 5 4 4 1 2 8 7 7 7 7 7 6 4 5 5 5 5 5 5 4 3 4 3 3 3 4 5 6 6 6 6 5 5 4 4 6 5 4 4 4 4 4 3 4 4 4
4 7 6 4 3 4 2 4 7 7 6 6 7 6 4 4 5 6 6 6 6 6 5 4 4 4 4 4 5 5 5 5 5 6 5 6 5 6 7 6 6 5 5 5 4 3 4 4 4
6 4 6 7 3 2 4 6 8 4 4 5 5 5 5 5 5 6 6 6 5 5 4 4 4 4 5 5 6 6 6 6 6 6 5 5 6 6 7 6 6 6 6 6 5 4 5 5 5
5 9 6 6 4 1 5 5 5 7 7 6 5 6 6 6 6 6 5 4 3 3 3 3 4 5 6 6 6 5 6 6 6 6 7 7 7 6 7 7 7 7 7 6 5 5 6 6 6
3 5 6 5 5 6 3 7 7 9 9 9 8 7 8 8 7 5 4 2 2 2 3 4 4 5 6 6 6 6 6 6 6 6 7 7 7 7 8 8 8 8 8 7 6 7 7 7 7
2 5 7 5 4 5 4 8 6 8 8 8 8 8 7 7 5 3 3 2 2 3 4 5 5 6 7 6 6 6 6 6 6 7 8 7 8 8 8 8 8 9 9 8 8 9 8 8 8
Wind_Direction
139 135 121 90 47 5 274 258 251 299 358 22 56 80 85 70 83 123 110 129 131 138 147 149 146 141 137 134 131 130 130 131 133 135 138 141 145 150 154 158 161 162 161 159 155 150 147 145 142
139 142 85 70 57 329 285 252 269 296 146 108 64 73 71 68 79 111 125 136 137 138 142 149 149 144 142 139 136 136 136 137 139 141 144 147 151 155 158 162 165 167 167 166 163 160 156 153 151
151 136 92 79 221 245 280 289 311 26 57 44 54 59 72 90 123 133 141 138 131 131 138 153 152 149 146 143 141 141 142 144 146 148 150 154 157 161 165 169 172 175 176 175 173 171 167 163 161
139 69 67 64 265 248 255 281 277 5 23 35 61 56 52 31 113 131 135 137 132 126 139 155 153 152 151 149 149 149 150 152 155 158 161 164 168 173 177 180 184 188 190 189 186 182 179 175 173
81 89 65 330 270 266 275 294 198 91 42 34 56 69 35 23 90 121 134 139 137 129 135 152 152 154 155 156 157 158 160 163 167 171 175 180 184 189 192 194 199 204 206 204 200 194 190 187 186
76 78 83 294 286 292 329 0 59 69 58 36 46 80 54 81 106 124 132 136 137 133 128 145 154 156 160 163 165 166 169 173 179 184 189 195 200 205 208 209 211 216 219 218 215 209 202 200 199
119 120 189 254 289 320 353 12 43 51 50 24 27 89 88 100 111 118 122 125 126 124 116 120 141 155 163 169 174 177 181 185 191 197 202 207 212 217 222 223 223 225 228 228 227 222 216 211 210
144 120 263 266 268 313 338 28 47 43 46 21 35 112 148 138 117 110 110 113 119 113 105 101 111 126 145 172 187 191 195 199 205 212 218 222 225 228 232 234 236 237 238 238 237 233 228 221 217
118 84 245 239 216 264 358 43 54 57 55 41 37 60 121 125 119 113 112 112 120 121 95 86 95 106 124 173 207 211 215 218 221 229 234 236 240 246 248 248 248 249 248 246 243 241 237 233 229
122 168 231 229 207 183 87 67 65 69 49 38 44 61 98 119 121 122 125 127 128 131 116 88 95 111 138 194 237 247 246 241 236 242 248 253 252 254 257 262 262 262 260 258 252 246 244 241 235
169 203 243 255 232 184 127 75 43 91 58 45 86 93 99 107 107 110 109 109 115 119 110 115 114 114 140 34 19 354 330 308 287 268 257 254 257 265 270 274 277 280 278 274 270 258 246 241 235
184 246 243 274 189 138 121 102 68 60 84 90 94 96 95 96 92 94 99 103 102 96 83 72 87 93 68 38 20 12 20 6 335 296 277 260 253 261 265 270 283 284 282 282 276 264 253 245 237
211 275 318 5 82 94 93 85 95 87 96 97 95 90 91 95 89 84 91 95 95 91 80 65 68 80 83 68 36 41 33 28 9 348 342 289 239 260 273 273 287 288 287 283 282 270 263 255 246
206 106 55 51 76 76 97 83 84 104 108 102 98 94 94 99 105 101 99 101 100 99 92 84 78 82 86 86 82 64 50 38 33 16 3 6 23 307 324 322 319 310 305 293 285 279 273 266 255
135 93 52 38 62 104 93 60 67 128 118 109 108 108 104 101 106 111 115 116 117 113 110 102 95 87 95 96 91 85 69 55 36 14 6 16 31 23 8 343 325 317 318 309 298 289 277 271 263
51 69 73 11 73 118 99 130 188 154 138 132 128 127 120 114 120 124 130 132 137 137 136 131 123 120 119 120 102 85 67 53 31 14 8 4 354 355 11 311 302 316 322 318 307 296 293 283 276
31 90 150 213 45 120 125 163 196 186 155 151 151 151 145 146 148 157 159 159 164 168 167 161 151 146 127 104 82 67 52 37 20 13 4 355 351 348 348 311 307 325 324 320 314 312 288 288 288
234 196 179 200 20 87 116 150 166 177 176 170 167 168 169 176 184 182 178 179 183 187 187 175 164 145 115 90 65 38 27 16 14 9 355 352 351 349 344 318 316 330 321 314 312 300 287 274 284
180 162 167 162 69 86 109 136 178 197 199 185 186 196 199 204 203 192 188 189 190 200 203 204 189 183 143 91 75 39 344 335 341 341 345 345 346 346 335 317 314 314 291 287 297 295 299 292 300
167 150 152 102 60 99 125 159 195 203 212 205 199 212 213 211 210 208 205 204 206 210 214 215 213 206 197 162 151 161 255 302 294 310 324 335 343 342 336 324 307 299 285 290 292 279 301 299 318
194 177 173 151 113 64 95 44 198 210 221 217 214 219 221 215 213 213 211 216 218 221 218 216 215 213 211 186 115 50 18 349 335 325 320 324 330 328 323 314 303 293 262 264 268 256 240 276 302
267 193 137 122 100 26 36 328 296 264 261 231 226 226 227 227 222 217 214 219 222 226 215 208 209 212 213 182 166 193 246 274 272 282 292 304 312 316 316 312 308 297 273 260 263 244 229 229 269
95 74 88 91 93 50 27 30 298 338 272 254 242 239 237 231 224 221 218 218 220 213 201 202 202 212 212 195 193 212 245 253 276 290 293 298 303 306 307 307 302 302 289 274 266 260 236 223 233
119 76 60 52 63 18 345 84 292 261 234 252 245 241 242 236 224 215 208 196 196 180 176 178 187 219 225 218 219 224 250 268 284 289 291 295 300 302 305 303 294 293 291 290 281 261 247 234 236
82 86 38 5 12 272 266 236 255 254 235 231 243 249 248 229 211 197 187 183 181 177 178 177 186 227 242 243 249 246 250 256 259 269 274 282 290 292 295 303 293 287 283 287 285 275 265 247 240
151 131 153 199 229 282 309 255 258 253 247 238 239 246 246 221 203 194 189 183 184 184 177 175 193 231 250 254 263 264 257 250 253 257 258 264 266 273 280 285 282 278 278 283 280 275 272 259 250
136 138 144 123 112 10 298 292 302 259 255 238 232 223 222 209 197 190 182 180 184 184 187 195 208 239 257 260 266 269 263 253 258 265 263 265 266 274 275 279 282 280 276 271 269 264 269 270 263
127 137 105 111 131 276 303 288 254 254 240 226 212 205 204 190 191 187 183 186 194 202 213 221 227 243 259 264 262 264 262 262 263 268 271 271 272 272 280 282 281 281 279 273 265 263 263 264 265
119 98 102 105 142 151 244 270 226 223 224 220 222 208 197 195 197 198 200 204 215 234 242 252 258 262 270 270 269 272 275 276 277 273 272 274 277 278 277 279 281 281 281 276 266 263 261 258 263
186 161 149 149 191 167 181 265 258 232 232 217 218 208 201 198 196 196 202 211 236 253 261 265 269 270 269 269 271 272 276 281 282 279 278 278 279 281 278 280 281 281 280 275 269 269 268 257 258
Height
1519 1521 1524 1526 1527 1531 1528 1516 1506 1501 1499 1498 1496 1496 1499 1504 1508 1514 1511 1511 1515 1519 1522 1526 1529 1532 1534 1536 1537 1539 1540 1542 1543 1544 1545 1546 1547 1548 1549 1550 1550 1551 1552 1553 1553 1554 1554 1555 1555
1520 1522 1526 1526 1530 1534 1524 1508 1503 1500 1499 1498 1498 1500 1501 1505 1506 1508 1509 1512 1516 1520 1524 1527 1530 1533 1535 1537 1539 1540 1542 1543 1544 1545 1546 1547 1548 1549 1549 1550 1551 1552 1553 1553 1554 1555 1555 1556 1556
1521 1523 1526 1527 1531 1532 1519 1504 1500 1499 1499 1499 1500 1502 1504 1507 1508 1509 1511 1513 1517 1521 1525 1528 1531 1534 1536 1538 1540 1542 1543 1544 1545 1546 1547 1548 1548 1549 1550 1551 1552 1552 1553 1554 1555 1555 1556 1556 1557
1522 1525 1526 1531 1530 1520 1510 1502 1499 1499 1499 1500 1502 1506 1508 1510 1511 1512 1512 1514 1518 1523 1526 1530 1533 1535 1537 1539 1541 1542 1544 1545 1546 1547 1547 1548 1549 1549 1550 1551 1552 1553 1553 1554 1555 1556 1556 1557 1558
1522 1524 1529 1533 1527 1513 1504 1500 1497 1500 1502 1504 1504 1508 1511 1512 1512 1513 1514 1516 1519 1524 1528 1531 1534 1537 1539 1540 1542 1543 1544 1545 1546 1547 1547 1548 1549 1549 1550 1551 1552 1553 1554 1554 1555 1556 1557 1557 1558
1522 1524 1533 1534 1523 1509 1504 1501 1499 1502 1504 1506 1508 1510 1514 1514 1514 1516 1517 1519 1522 1526 1529 1532 1535 1538 1540 1541 1543 1544 1545 1546 1546 1547 1547 1548 1548 1549 1550 1550 1551 1552 1553 1554 1555 1556 1556 1557 1558
1523 1526 1530 1527 1521 1512 1506 1503 1504 1505 1508 1510 1510 1512 1515 1516 1517 1518 1519 1522 1525 1528 1531 1533 1536 1538 1540 1542 1543 1544 1545 1546 1546 1547 1547 1547 1548 1548 1549 1549 1550 1551 1552 1553 1554 1555 1555 1556 1557
1521 1525 1527 1526 1520 1513 1507 1506 1507 1508 1510 1512 1512 1513 1516 1517 1518 1520 1521 1524 1527 1530 1532 1535 1537 1539 1541 1543 1544 1545 1545 1545 1546 1546 1546 1547 1547 1547 1548 1548 1549 1549 1550 1551 1552 1553 1554 1555 1556
1520 1528 1531 1522 1516 1511 1507 1507 1510 1512 1512 1512 1513 1514 1516 1518 1519 1521 1523 1526 1528 1531 1533 1536 1538 1540 1541 1543 1544 1544 1544 1545 1545 1545 1546 1546 1546 1546 1546 1547 1547 1547 1548 1549 1550 1550 1551 1553 1554
1518 1528 1522 1512 1508 1507 1508 1509 1511 1513 1514 1516 1516 1516 1518 1519 1521 1523 1525 1527 1530 1532 1534 1537 1538 1540 1541 1542 1543 1544 1544 1544 1544 1544 1544 1544 1544 1544 1544 1545 1545 1545 1546 1546 1547 1547 1548 1549 1550
1515 1518 1511 1507 1505 1506 1507 1510 1512 1514 1519 1520 1520 1520 1521 1522 1524 1525 1527 1529 1531 1533 1534 1537 1538 1540 1541 1542 1542 1543 1542 1542 1543 1542 1543 1543 1542 1542 1542 1542 1542 1542 1543 1543 1543 1544 1544 1545 1546
1513 1510 1507 1505 1504 1505 1507 1511 1514 1517 1521 1521 1521 1521 1522 1523 1525 1527 1528 1530 1532 1533 1535 1537 1538 1539 1541 1542 1542 1542 1541 1541 1541 1541 1541 1541 1540 1540 1540 1540 1539 1539 1539 1539 1540 1540 1540 1541 1542
1510 1508 1506 1504 1503 1506 1508 1512 1516 1521 1521 1522 1522 1523 1523 1524 1526 1528 1530 1531 1533 1534 1535 1537 1538 1539 1540 1541 1541 1541 1540 1540 1540 1539 1539 1538 1538 1538 1537 1537 1536 1536 1536 1536 1535 1535 1535 1536 1536
1507 1507 1507 1507 1506 1509 1511 1516 1518 1522 1522 1523 1523 1524 1525 1526 1527 1528 1530 1531 1533 1534 1535 1537 1538 1539 1539 1540 1540 1539 1539 1539 1538 1538 1537 1536 1535 1535 1534 1534 1533 1533 1532 1532 1531 1530 1530 1531 1531
1507 1508 1509 1510 1510 1513 1513 1520 1522 1522 1523 1523 1524 1525 1526 1527 1528 1529 1530 1532 1534 1535 1536 1537 1538 1539 1539 1540 1540 1539 1539 1538 1537 1536 1535 1534 1533 1532 1531 1530 1530 1529 1528 1528 1527 1526 1526 1526 1526
1507 1512 1518 1513 1512 1513 1517 1528 1523 1523 1523 1524 1525 1526 1527 1528 1529 1530 1531 1533 1534 1536 1537 1537 1538 1539 1539 1540 1539 1539 1538 1537 1535 1534 1533 1532 1530 1529 1528 1527 1526 1526 1525 1524 1523 1522 1521 1521 1520
1515 1520 1520 1516 1513 1513 1518 1525 1522 1523 1523 1524 1525 1527 1527 1528 1529 1530 1531 1533 1534 1536 1537 1537 1538 1539 1539 1539 1539 1538 1537 1535 1533 1532 1530 1529 1528 1526 1525 1524 1523 1523 1522 1521 1520 1518 1517 1516 1516
1519 1519 1519 1519 1515 1516 1520 1522 1522 1523 1524 1525 1526 1528 1528 1528 1529 1530 1531 1533 1534 1536 1537 1538 1538 1539 1539 1538 1538 1537 1535 1533 1531 1529 1528 1526 1525 1523 1522 1521 1520 1520 1519 1518 1517 1516 1514 1513 1511
1509 1514 1518 1518 1515 1518 1522 1524 1524 1524 1525 1525 1526 1527 1528 1528 1530 1530 1531 1533 1534 1535 1536 1537 1537 1538 1538 1537 1536 1535 1533 1531 1529 1527 1525 1523 1522 1520 1519 1518 1517 1517 1516 1515 1514 1513 1512 1510 1508
1507 1514 1518 1518 1516 1519 1524 1525 1524 1524 1525 1524 1525 1526 1527 1528 1529 1530 1530 1532 1533 1534 1535 1536 1536 1536 1536 1535 1534 1532 1530 1528 1526 1524 1522 1520 1518 1517 1516 1515 1514 1513 1513 1512 1511 1510 1509 1508 1506
1508 1512 1515 1518 1519 1521 1524 1527 1526 1524 1524 1524 1525 1525 1526 1527 1527 1528 1529 1530 1532 1533 1534 1534 1535 1534 1534 1533 1531 1530 1528 1526 1524 1521 1519 1517 1515 1514 1513 1511 1510 1510 1509 1509 1508 1507 1506 1505 1505
1511 1506 1509 1515 1524 1534 1530 1539 1528 1525 1524 1522 1523 1523 1524 1525 1526 1527 1528 1529 1530 1531 1532 1532 1532 1532 1531 1530 1529 1527 1525 1523 1521 1518 1516 1514 1513 1511 1509 1508 1507 1506 1505 1505 1504 1504 1503 1503 1502
1508 1506 1511 1518 1527 1535 1536 1541 1535 1526 1524 1521 1520 1520 1521 1522 1523 1524 1525 1527 1528 1529 1529 1530 1530 1529 1528 1527 1526 1524 1522 1520 1518 1516 1513 1511 1510 1508 1506 1504 1503 1502 1501 1501 1501 1500 1500 1499 1499
1505 1512 1519 1527 1534 1545 1541 1544 1539 1528 1522 1518 1517 1517 1518 1519 1520 1521 1523 1524 1525 1526 1527 1527 1527 1526 1525 1524 1523 1521 1519 1517 1515 1512 1510 1508 1506 1504 1502 1501 1499 1498 1497 1497 1496 1496 1496 1495 1495
1508 1523 1541 1543 1552 1549 1541 1543 1537 1519 1515 1515 1514 1514 1515 1516 1518 1519 1520 1522 1523 1524 1524 1524 1524 1523 1522 1521 1519 1518 1516 1514 1511 1509 1507 1504 1502 1500 1498 1497 1495 1494 1493 1492 1492 1491 1491 1491 1491
1511 1519 1540 1548 1551 1548 1541 1542 1527 1512 1511 1511 1511 1512 1513 1514 1516 1517 1519 1520 1521 1522 1522 1522 1521 1520 1519 1518 1516 1514 1513 1510 1508 1506 1504 1501 1498 1496 1494 1493 1491 1490 1489 1488 1487 1486 1486 1486 1486
1511 1519 1522 1539 1545 1549 1543 1534 1519 1509 1509 1509 1509 1510 1511 1512 1514 1515 1517 1518 1519 1520 1519 1519 1518 1517 1516 1514 1513 1511 1509 1507 1505 1503 1500 1498 1495 1493 1491 1489 1487 1486 1484 1483 1482 1481 1481 1480 1480
1504 1515 1529 1540 1550 1551 1542 1536 1530 1512 1508 1507 1507 1508 1509 1511 1512 1514 1516 1517 1517 1517 1517 1516 1515 1514 1513 1511 1510 1508 1506 1504 1502 1499 1497 1494 1491 1489 1487 1485 1483 1481 1480 1478 1477 1476 1475 1475 1474
1508 1516 1527 1539 1539 1550 1551 1540 1511 1507 1503 1504 1504 1505 1507 1509 1511 1513 1514 1515 1516 1515 1515 1514 1513 1511 1510 1508 1506 1504 1502 1500 1498 1495 1492 1490 1487 1485 1482 1480 1478 1476 1474 1473 1472 1470 1469 1469 1468
1500 1507 1520 1530 1537 1543 1546 1535 1500 1500 1499 1500 1501 1503 1505 1508 1510 1512 1513 1513 1513 1513 1512 1511 1510 1508 1506 1504 1503 1501 1498 1496 1493 1491 1488 1485 1482 1480 1477 1475 1472 1471 1469 1468 1466 1465 1464 1463 1462